Location: Unspecified
(54.1780°N, 0.0000°E)
Time: 23:31:50
(UTC+00:00)

S-56A Canister/Altair - Visible Passes

Search period start: 01 October 2020 00:00
Search period end: 11 October 2020 00:00
Orbit: 632 x 2500 km, 38.9° (Epoch: 01 October)

Date Brightness Start Highest point End Pass type
(mag) Time Alt. Az. Time Alt. Az. Time Alt. Az.
01 Oct 10.9 19:57:46 10° WSW 20:04:36 16° SW 20:10:24 10° SSW visible
02 Oct 11.0 19:23:29 10° W 19:31:48 19° SW 19:38:45 10° S visible
03 Oct 11.0 18:49:24 10° W 18:58:56 22° SW 19:06:51 10° S visible
04 Oct 11.1 18:15:28 10° W 18:26:00 25° SW 18:34:46 10° SSE visible
05 Oct 11.1 17:41:38 10° W 17:52:58 28° SSW 18:02:31 10° SSE visible
06 Oct 11.6 19:17:38 10° WSW 19:22:25 13° SW 19:26:50 10° SSW visible
07 Oct 11.5 18:42:42 10° WSW 18:49:35 15° SW 18:55:48 10° SSW visible
08 Oct 11.5 18:08:19 10° W 18:16:40 18° SW 18:24:13 10° S visible
09 Oct 11.6 17:34:13 10° W 17:43:42 21° SW 17:52:18 10° S visible
